Location: Unspecified
(0.0000°N, 0.0000°E)
Time: 17:40:39
(UTC+00:00)

Envisat - Pass Details

Date: 26 September 2022
Orbit: 764 x 765 km, 98.2° (Epoch: 26 September)

Event Time Altitude Azimuth Distance (km) Brightness Sun altitude
Rises 03:32:00 0° 24° (NNE) 3,213 6.5 -34.9°
Reaches altitude 10° 03:34:23 10° 30° (NNE) 2,290 5.7 -34.3°
Enters shadow 03:37:59 38° 65° (ENE) 1,150 4.2 -33.4°
